When you browse on this site, cookies collect data to enhance your experience and personalize the content and advertising you see.
Visit our Privacy Policy to learn more. By continuing to use the site, you agree to this use of cookies and data.
  • In Czech Republic
  • List of Countries
  • For 7 days
  • Water Temperature
  • Weather Map
  • Weather Widgets
  • user-avatar
    Login

    Hourly Weather Labé

    Today, 18 October, Friday

    Time Temperature Precipitation Wind Pressure Humidity
    00:00 +19°C° 0 mm 0 mps 672 mmHg 88%
    01:00 +18°C° 0 mm 0 mps 672 mmHg 88%
    02:00 +18°C° 0 mm 0 mps 671 mmHg 88%
    03:00 +18°C° 0 mm 0 mps 671 mmHg 88%
    04:00 +18°C° 0 mm 0 mps 671 mmHg 88%
    05:00 +18°C° 0 mm 0 mps 671 mmHg 87%
    06:00 +20°C° 0 mm 0 mps 672 mmHg 82%
    07:00 +22°C° 0 mm 0 mps 673 mmHg 76%
    08:00 +24°C° 0 mm 0 mps 674 mmHg 70%
    09:00 +27°C° 0 mm 1 mps 674 mmHg 63%
    10:00 +29°C° 0 mm 1 mps 674 mmHg 56%
    11:00 +30°C° 0 mm 2 mps 674 mmHg 50%
    12:00 +30°C° 0.1 mm 2 mps 674 mmHg 52%
    13:00 +30°C° 0.1 mm 2 mps 673 mmHg 54%
    14:00 +29°C° 0.1 mm 3 mps 673 mmHg 57%
    15:00 +28°C° 0.6 mm 2 mps 672 mmHg 65%
    16:00 +26°C° 0.6 mm 1 mps 672 mmHg 73%
    17:00 +24°C° 0.6 mm 1 mps 671 mmHg 82%
    18:00 +23°C° 0.1 mm 1 mps 672 mmHg 83%
    19:00 +22°C° 0.1 mm 1 mps 672 mmHg 84%
    20:00 +19°C° 0.1 mm 0 mps 672 mmHg 85%
    21:00 +19°C° 0 mm 0 mps 672 mmHg 85%
    22:00 +21°C° 0 mm 1 mps 672 mmHg 85%
    23:00 +21°C° 0 mm 1 mps 672 mmHg 85%

    Tomorrow, 19 October, Saturday

    Time Temperature Precipitation Wind Pressure Humidity
    00:00 +20°C° 0 mm 1 mps 671 mmHg 85%
    01:00 +18°C° 0 mm 0 mps 671 mmHg 84%
    02:00 +18°C° 0 mm 0 mps 670 mmHg 84%
    03:00 +18°C° 0 mm 0 mps 670 mmHg 84%
    04:00 +18°C° 0 mm 0 mps 670 mmHg 84%
    05:00 +18°C° 0 mm 0 mps 671 mmHg 83%
    06:00 +21°C° 0 mm 1 mps 671 mmHg 81%
    07:00 +23°C° 0 mm 1 mps 672 mmHg 79%
    08:00 +24°C° 0 mm 1 mps 673 mmHg 76%
    09:00 +26°C° 0 mm 1 mps 673 mmHg 71%
    10:00 +27°C° 0 mm 1 mps 673 mmHg 66%
    11:00 +29°C° 0 mm 2 mps 673 mmHg 61%
    12:00 +29°C° 0.3 mm 2 mps 673 mmHg 61%
    13:00 +29°C° 0.3 mm 2 mps 672 mmHg 61%
    14:00 +29°C° 0.3 mm 2 mps 672 mmHg 61%
    15:00 +27°C° 0.5 mm 2 mps 671 mmHg 70%
    16:00 +26°C° 0.5 mm 1 mps 671 mmHg 78%
    17:00 +24°C° 0.5 mm 1 mps 671 mmHg 87%
    18:00 +23°C° 0.4 mm 1 mps 671 mmHg 88%
    19:00 +22°C° 0.4 mm 1 mps 671 mmHg 90%
    20:00 +21°C° 0.4 mm 1 mps 672 mmHg 92%
    21:00 +21°C° 0 mm 1 mps 672 mmHg 91%
    22:00 +21°C° 0 mm 1 mps 672 mmHg 90%
    23:00 +21°C° 0 mm 1 mps 671 mmHg 89%

    Day after tomorrow, 20 October, Sunday

    Time Temperature Precipitation Wind Pressure Humidity
    00:00 +20°C° 0 mm 1 mps 671 mmHg 89%
    01:00 +20°C° 0 mm 1 mps 671 mmHg 90%
    02:00 +18°C° 0 mm 0 mps 670 mmHg 90%
    03:00 +20°C° 0 mm 1 mps 670 mmHg 90%
    04:00 +19°C° 0 mm 1 mps 670 mmHg 90%
    05:00 +19°C° 0 mm 1 mps 670 mmHg 90%
    06:00 +21°C° 0 mm 1 mps 671 mmHg 86%
    07:00 +21°C° 0 mm 0 mps 672 mmHg 83%
    08:00 +22°C° 0 mm 0 mps 673 mmHg 80%
    09:00 +26°C° 0.2 mm 1 mps 673 mmHg 73%
    10:00 +27°C° 0.2 mm 1 mps 673 mmHg 67%
    11:00 +29°C° 0.2 mm 1 mps 673 mmHg 60%
    12:00 +29°C° 0.2 mm 1 mps 673 mmHg 59%
    13:00 +29°C° 0.2 mm 2 mps 672 mmHg 57%
    14:00 +29°C° 0.2 mm 2 mps 672 mmHg 56%
    15:00 +28°C° 0.8 mm 1 mps 671 mmHg 65%
    16:00 +26°C° 0.8 mm 1 mps 671 mmHg 74%
    17:00 +22°C° 0.8 mm 0 mps 671 mmHg 83%
    18:00 +21°C° 0.3 mm 0 mps 671 mmHg 84%
    19:00 +20°C° 0.3 mm 0 mps 672 mmHg 86%
    20:00 +19°C° 0.3 mm 0 mps 672 mmHg 88%
    21:00 +19°C° 0 mm 0 mps 672 mmHg 87%
    22:00 +19°C° 0 mm 0 mps 672 mmHg 87%
    23:00 +19°C° 0 mm 0 mps 672 mmHg 86%

    21 October, Monday

    Time Temperature Precipitation Wind Pressure Humidity
    00:00 +19°C° 0 mm 0 mps 671 mmHg 86%
    01:00 +21°C° 0 mm 1 mps 671 mmHg 86%
    02:00 +21°C° 0 mm 1 mps 671 mmHg 87%
    03:00 +21°C° 0 mm 1 mps 671 mmHg 86%
    04:00 +18°C° 0 mm 0 mps 671 mmHg 86%
    05:00 +18°C° 0 mm 0 mps 671 mmHg 86%
    06:00 +20°C° 0 mm 0 mps 672 mmHg 83%
    07:00 +21°C° 0 mm 0 mps 673 mmHg 80%
    08:00 +22°C° 0 mm 0 mps 674 mmHg 77%
    09:00 +24°C° 0.8 mm 0 mps 674 mmHg 73%
    10:00 +27°C° 0.8 mm 1 mps 674 mmHg 70%
    11:00 +28°C° 0.8 mm 1 mps 674 mmHg 67%
    12:00 +27°C° 1.4 mm 1 mps 673 mmHg 68%
    13:00 +27°C° 1.4 mm 1 mps 672 mmHg 70%
    14:00 +27°C° 1.4 mm 2 mps 671 mmHg 71%
    15:00 +26°C° 1.2 mm 1 mps 671 mmHg 76%
    16:00 +25°C° 1.2 mm 1 mps 671 mmHg 81%
    17:00 +24°C° 1.2 mm 1 mps 671 mmHg 86%
    18:00 +21°C° 0 mm 0 mps 671 mmHg 87%
    19:00 +20°C° 0 mm 0 mps 671 mmHg 88%
    20:00 +19°C° 0 mm 0 mps 671 mmHg 90%
    21:00 +19°C° 0.5 mm 0 mps 671 mmHg 90%
    22:00 +19°C° 0.5 mm 0 mps 671 mmHg 89%
    23:00 +19°C° 0.5 mm 0 mps 671 mmHg 89%

    22 October, Tuesday

    Time Temperature Precipitation Wind Pressure Humidity
    00:00 +19°C° 2.1 mm 0 mps 671 mmHg 92%
    01:00 +20°C° 2.1 mm 1 mps 671 mmHg 94%
    02:00 +20°C° 2.1 mm 1 mps 670 mmHg 97%
    03:00 +20°C° 0.3 mm 1 mps 670 mmHg 96%
    04:00 +20°C° 0.3 mm 1 mps 670 mmHg 95%
    05:00 +20°C° 0.3 mm 1 mps 670 mmHg 94%
    06:00 +19°C° 0.1 mm 0 mps 671 mmHg 92%
    07:00 +20°C° 0.1 mm 0 mps 672 mmHg 89%
    08:00 +21°C° 0.1 mm 0 mps 672 mmHg 86%
    09:00 +24°C° 1.1 mm 1 mps 672 mmHg 83%
    10:00 +25°C° 1.1 mm 2 mps 672 mmHg 80%
    11:00 +26°C° 1.1 mm 2 mps 672 mmHg 77%
    12:00 +26°C° 1.2 mm 2 mps 671 mmHg 79%
    13:00 +25°C° 1.2 mm 2 mps 670 mmHg 80%
    14:00 +25°C° 1.2 mm 2 mps 670 mmHg 82%
    15:00 +24°C° 1.1 mm 2 mps 670 mmHg 85%
    16:00 +24°C° 1.1 mm 2 mps 670 mmHg 88%
    17:00 +23°C° 1.1 mm 1 mps 670 mmHg 91%
    18:00 +22°C° 0.3 mm 1 mps 670 mmHg 91%
    19:00 +22°C° 0.3 mm 1 mps 670 mmHg 91%
    20:00 +21°C° 0.3 mm 1 mps 670 mmHg 91%
    21:00 +21°C° 0 mm 1 mps 670 mmHg 91%
    22:00 +21°C° 0 mm 1 mps 670 mmHg 91%
    23:00 +21°C° 0 mm 1 mps 670 mmHg 91%

    23 October, Wednesday

    Time Temperature Precipitation Wind Pressure Humidity
    00:00 +20°C° 0.1 mm 2 mps 670 mmHg 92%
    01:00 +20°C° 0.1 mm 3 mps 670 mmHg 93%
    02:00 +19°C° 0.1 mm 3 mps 669 mmHg 94%
    03:00 +19°C° 0 mm 3 mps 670 mmHg 94%
    04:00 +19°C° 0 mm 3 mps 670 mmHg 93%
    05:00 +19°C° 0 mm 3 mps 670 mmHg 92%
    06:00 +20°C° 0 mm 3 mps 670 mmHg 88%
    07:00 +20°C° 0 mm 3 mps 670 mmHg 84%
    08:00 +21°C° 0 mm 3 mps 671 mmHg 80%
    09:00 +21°C° 0 mm 3 mps 671 mmHg 79%
    10:00 +21°C° 0 mm 2 mps 671 mmHg 79%
    11:00 +22°C° 0 mm 1 mps 670 mmHg 78%
    12:00 +23°C° 0 mm 1 mps 670 mmHg 77%
    13:00 +24°C° 0 mm 1 mps 670 mmHg 76%
    14:00 +25°C° 0 mm 1 mps 670 mmHg 74%
    15:00 +25°C° 0 mm 1 mps 670 mmHg 78%
    16:00 +24°C° 0 mm 1 mps 670 mmHg 82%
    17:00 +21°C° 0 mm 0 mps 670 mmHg 86%
    18:00 +21°C° 0.1 mm 0 mps 670 mmHg 88%
    19:00 +22°C° 0.1 mm 1 mps 670 mmHg 89%
    20:00 +21°C° 0.1 mm 1 mps 671 mmHg 91%
    21:00 +21°C° 0.1 mm 1 mps 671 mmHg 91%
    22:00 +21°C° 0.1 mm 1 mps 671 mmHg 91%
    23:00 +19°C° 0.1 mm 0 mps 671 mmHg 90%
    Show more